Starlink 31623

operational
NORAD ID: 59272 Int'l Des: 2024-050 Owner: SPXS Country: US Constellation: starlink
LEOCIRCULAR

关于 Starlink 31623

正在加载描述...

实时位置

正在加载3D地球...

即将过境

高度历史

Altitude vs Time

uPlot chart will show altitude changes over time

两行轨道根数

1 59272U 24050U 25259.43173551 -.00000145 00000-0 72268-5 0 9999
2 59272 53.1603 270.0713 0001117 67.7245 292.3875 15.30187225 83872
Epoch: Sep 16, 2025 • Age: 21 hours

当前状态

高度 483.3 km
速度 7.62 km/s
星下点 -25.36°S, 4.81°W
发射日期 Mar 19, 2024
运行时间 1.4 years
类型 internet

技术详情

分类 Payload
质量 730.00 kg
干质量 700.00 kg
总质量 730.00 kg
长度 0.30 m
直径 4.10 m
跨度 29.00 m
形状 Box + pan
制造商 SPXS
平台类型 Starlink V2M
阶段状态 In Orbit
所有者/国家 SPXS/US

大型星座

Loading constellations...